Time,TemperatureF,DewpointF,PressureIn,WindDirection,WindDirectionDegrees,WindSpeedMPH,WindSpeedGustMPH,Humidity,HourlyPrecipIn,Conditions,Clouds,dailyrainin,SolarRadiationWatts/m^2,SoftwareType,DateUTC
2013-09-03 00:08:00,71.4,48.0,30.10,NNW,330,0.0,8.0,44,0.00,,,0.00,0,weatherlink.com 1.10,2013-09-03 06:08:00,
2013-09-03 00:23:00,69.8,49.0,30.10,NE,55,8.0,10.0,47,0.00,,,0.00,0,weatherlink.com 1.10,2013-09-03 06:23:00,
2013-09-03 00:38:00,70.5,50.0,30.10,NE,44,6.0,11.0,49,0.00,,,0.00,0,weatherlink.com 1.10,2013-09-03 06:38:00,
2013-09-03 00:53:00,70.5,50.0,30.11,NE,46,6.0,9.0,48,0.00,,,0.00,0,weatherlink.com 1.10,2013-09-03 06:53:00,
2013-09-03 01:08:00,69.6,49.0,30.11,NNE,26,7.0,9.0,49,0.00,,,0.00,0,weatherlink.com 1.10,2013-09-03 07:08:00,
2013-09-03 01:23:00,68.7,50.0,30.12,North,11,9.0,10.0,51,0.00,,,0.00,0,weatherlink.com 1.10,2013-09-03 07:23:00,
2013-09-03 01:38:00,67.9,50.0,30.12,NE,42,11.0,13.0,53,0.00,,,0.00,0,weatherlink.com 1.10,2013-09-03 07:38:00,
2013-09-03 01:53:00,67.5,51.0,30.13,North,355,6.0,9.0,56,0.00,,,0.00,0,weatherlink.com 1.10,2013-09-03 07:53:00,
2013-09-03 02:08:00,66.1,51.0,30.13,NNE,12,0.0,5.0,58,0.00,,,0.00,0,weatherlink.com 1.10,2013-09-03 08:08:00,
2013-09-03 02:24:00,65.3,50.0,30.14,NNE,22,3.0,7.0,59,0.00,,,0.00,0,weatherlink.com 1.10,2013-09-03 08:24:00,
2013-09-03 02:39:00,65.3,50.0,30.14,NE,49,4.0,6.0,58,0.00,,,0.00,0,weatherlink.com 1.10,2013-09-03 08:39:00,
2013-09-03 02:54:00,65.9,50.0,30.14,NE,53,4.0,6.0,56,0.00,,,0.00,0,weatherlink.com 1.10,2013-09-03 08:54:00,
2013-09-03 03:09:00,66.1,50.0,30.15,NE,56,0.0,3.0,57,0.00,,,0.00,0,weatherlink.com 1.10,2013-09-03 09:09:00,
2013-09-03 03:24:00,64.7,50.0,30.15,ENE,57,0.0,0.0,59,0.00,,,0.00,0,weatherlink.com 1.10,2013-09-03 09:24:00,
2013-09-03 03:39:00,65.0,50.0,30.16,East,86,0.0,0.0,58,0.00,,,0.00,0,weatherlink.com 1.10,2013-09-03 09:39:00,
2013-09-03 03:54:00,65.5,50.0,30.16,South,178,0.0,0.0,57,0.00,,,0.00,0,weatherlink.com 1.10,2013-09-03 09:54:00,
2013-09-03 04:09:00,62.7,49.0,30.16,South,186,0.0,7.0,62,0.00,,,0.00,0,weatherlink.com 1.10,2013-09-03 10:09:00,
2013-09-03 04:24:00,64.5,49.0,30.16,SSW,200,1.0,5.0,58,0.00,,,0.00,0,weatherlink.com 1.10,2013-09-03 10:24:00,
2013-09-03 04:39:00,62.7,49.0,30.16,SSW,200,0.0,0.0,62,0.00,,,0.00,0,weatherlink.com 1.10,2013-09-03 10:39:00,
2013-09-03 04:55:00,60.7,49.0,30.16,East,84,3.0,5.0,66,0.00,,,0.00,0,weatherlink.com 1.10,2013-09-03 10:55:00,
2013-09-03 05:09:00,61.7,49.0,30.16,NNE,24,4.0,5.0,64,0.00,,,0.00,0,weatherlink.com 1.10,2013-09-03 11:09:00,
2013-09-03 05:24:00,62.0,49.0,30.16,NNE,17,4.0,6.0,63,0.00,,,0.00,0,weatherlink.com 1.10,2013-09-03 11:24:00,
2013-09-03 05:39:00,62.7,49.0,30.16,NE,49,4.0,7.0,62,0.00,,,0.00,0,weatherlink.com 1.10,2013-09-03 11:39:00,
2013-09-03 05:54:00,63.7,49.0,30.16,NNE,13,6.0,7.0,59,0.00,,,0.00,0,weatherlink.com 1.10,2013-09-03 11:54:00,
2013-09-03 06:09:00,63.7,49.0,30.16,NNE,19,6.0,8.0,59,0.00,,,0.00,0,weatherlink.com 1.10,2013-09-03 12:09:00,
2013-09-03 06:24:00,64.1,49.0,30.17,North,5,2.0,4.0,58,0.00,,,0.00,0,weatherlink.com 1.10,2013-09-03 12:24:00,
2013-09-03 06:39:00,62.5,50.0,30.17,NNE,15,9.0,9.0,63,0.00,,,0.00,0,weatherlink.com 1.10,2013-09-03 12:39:00,
2013-09-03 06:54:00,62.3,49.0,30.17,NE,34,8.0,12.0,63,0.00,,,0.00,0,weatherlink.com 1.10,2013-09-03 12:54:00,
2013-09-03 07:09:00,63.4,50.0,30.18,NNE,15,7.0,10.0,61,0.00,,,0.00,0,weatherlink.com 1.10,2013-09-03 13:09:00,
2013-09-03 07:24:00,61.9,50.0,30.18,NNE,30,5.0,6.0,65,0.00,,,0.00,12,weatherlink.com 1.10,2013-09-03 13:24:00,
2013-09-03 07:39:00,65.3,49.0,30.18,NE,48,4.0,6.0,56,0.00,,,0.00,18,weatherlink.com 1.10,2013-09-03 13:39:00,
2013-09-03 07:54:00,63.2,50.0,30.19,WNW,300,0.0,3.0,63,0.00,,,0.00,28,weatherlink.com 1.10,2013-09-03 13:54:00,
2013-09-03 08:09:00,61.6,50.0,30.19,NE,42,0.0,2.0,65,0.00,,,0.00,30,weatherlink.com 1.10,2013-09-03 14:09:00,
2013-09-03 08:24:00,62.4,49.0,30.19,NNE,19,0.0,3.0,62,0.00,,,0.00,26,weatherlink.com 1.10,2013-09-03 14:24:00,
2013-09-03 08:39:00,63.4,50.0,30.20,NE,47,0.0,0.0,61,0.00,,,0.00,32,weatherlink.com 1.10,2013-09-03 14:39:00,
2013-09-03 08:54:00,63.3,50.0,30.20,West,259,0.0,0.0,62,0.00,,,0.00,74,weatherlink.com 1.10,2013-09-03 14:54:00,
2013-09-03 09:09:00,63.2,50.0,30.20,SW,227,0.0,0.0,62,0.00,,,0.00,109,weatherlink.com 1.10,2013-09-03 15:09:00,
2013-09-03 09:24:00,63.9,50.0,30.20,WSW,246,0.0,0.0,62,0.00,,,0.00,125,weatherlink.com 1.10,2013-09-03 15:24:00,
2013-09-03 09:39:00,63.8,51.0,30.20,NW,313,0.0,1.0,64,0.00,,,0.00,204,weatherlink.com 1.10,2013-09-03 15:39:00,
2013-09-03 09:54:00,64.1,51.0,30.20,NW,313,0.0,0.0,62,0.00,,,0.00,151,weatherlink.com 1.10,2013-09-03 15:54:00,
2013-09-03 10:09:00,65.2,52.0,30.20,NW,308,0.0,0.0,62,0.00,,,0.00,149,weatherlink.com 1.10,2013-09-03 16:09:00,
2013-09-03 10:25:00,64.7,51.0,30.21,West,277,0.0,4.0,62,0.00,,,0.00,171,weatherlink.com 1.10,2013-09-03 16:25:00,
2013-09-03 10:40:00,64.6,51.0,30.21,West,280,2.0,3.0,61,0.00,,,0.00,149,weatherlink.com 1.10,2013-09-03 16:40:00,
2013-09-03 10:55:00,65.3,50.0,30.20,West,281,0.0,3.0,59,0.00,,,0.00,264,weatherlink.com 1.10,2013-09-03 16:55:00,
2013-09-03 11:10:00,67.0,52.0,30.21,NW,317,3.0,4.0,58,0.00,,,0.00,353,weatherlink.com 1.10,2013-09-03 17:10:00,
2013-09-03 11:25:00,67.7,52.0,30.21,NW,320,0.0,4.0,57,0.00,,,0.00,327,weatherlink.com 1.10,2013-09-03 17:25:00,
2013-09-03 11:40:00,68.1,52.0,30.21,NNW,329,3.0,5.0,57,0.00,,,0.00,294,weatherlink.com 1.10,2013-09-03 17:40:00,
2013-09-03 11:55:00,68.5,51.0,30.22,NNW,335,2.0,4.0,53,0.00,,,0.00,149,weatherlink.com 1.10,2013-09-03 17:55:00,
2013-09-03 12:10:00,68.6,51.0,30.21,North,355,2.0,5.0,53,0.00,,,0.00,223,weatherlink.com 1.10,2013-09-03 18:10:00,
2013-09-03 12:25:00,68.9,51.0,30.21,North,360,5.0,7.0,53,0.00,,,0.00,359,weatherlink.com 1.10,2013-09-03 18:25:00,
2013-09-03 12:55:00,71.8,50.0,30.20,North,349,4.0,7.0,47,0.00,,,0.00,701,weatherlink.com 1.10,2013-09-03 18:55:00,
2013-09-03 13:10:00,73.1,52.0,30.19,NNW,343,2.0,9.0,47,0.00,,,0.00,807,weatherlink.com 1.10,2013-09-03 19:10:00,
2013-09-03 13:25:00,73.7,52.0,30.18,NNW,342,9.0,10.0,47,0.00,,,0.00,425,weatherlink.com 1.10,2013-09-03 19:25:00,
2013-09-03 13:40:00,73.6,52.0,30.18,NNW,333,5.0,10.0,47,0.00,,,0.00,301,weatherlink.com 1.10,2013-09-03 19:40:00,
2013-09-03 13:55:00,73.2,53.0,30.18,NNW,333,5.0,8.0,49,0.00,,,0.00,160,weatherlink.com 1.10,2013-09-03 19:55:00,
2013-09-03 14:10:00,73.7,52.0,30.17,North,360,6.0,7.0,47,0.00,,,0.00,253,weatherlink.com 1.10,2013-09-03 20:10:00,
2013-09-03 14:25:00,74.0,51.0,30.18,NNW,329,4.0,7.0,45,0.00,,,0.00,84,weatherlink.com 1.10,2013-09-03 20:25:00,
2013-09-03 14:40:00,73.5,52.0,30.18,North,349,3.0,5.0,48,0.00,,,0.00,93,weatherlink.com 1.10,2013-09-03 20:40:00,
2013-09-03 14:55:00,72.5,53.0,30.18,North,349,5.0,7.0,51,0.00,,,0.00,91,weatherlink.com 1.10,2013-09-03 20:55:00,
2013-09-03 15:10:00,71.9,53.0,30.18,North,360,3.0,6.0,52,0.00,,,0.00,105,weatherlink.com 1.10,2013-09-03 21:10:00,
2013-09-03 15:25:00,72.1,54.0,30.19,NNE,31,0.0,5.0,54,0.00,,,0.00,90,weatherlink.com 1.10,2013-09-03 21:25:00,
2013-09-03 15:40:00,72.5,54.0,30.19,ENE,61,0.0,3.0,53,0.00,,,0.00,172,weatherlink.com 1.10,2013-09-03 21:40:00,
2013-09-03 15:55:00,73.1,57.0,30.19,ENE,64,0.0,1.0,57,0.00,,,0.00,149,weatherlink.com 1.10,2013-09-03 21:55:00,
2013-09-03 16:10:00,71.4,55.0,30.19,West,259,0.0,6.0,56,0.00,,,0.00,248,weatherlink.com 1.10,2013-09-03 22:10:00,
2013-09-03 16:25:00,72.3,54.0,30.19,WNW,301,2.0,6.0,52,0.00,,,0.00,497,weatherlink.com 1.10,2013-09-03 22:25:00,
2013-09-03 16:40:00,74.2,54.0,30.20,WSW,248,3.0,7.0,49,0.00,,,0.00,490,weatherlink.com 1.10,2013-09-03 22:40:00,
2013-09-03 16:55:00,74.8,54.0,30.19,SSW,204,2.0,7.0,48,0.00,,,0.00,471,weatherlink.com 1.10,2013-09-03 22:55:00,
2013-09-03 17:10:00,74.6,55.0,30.19,WSW,244,5.0,8.0,50,0.00,,,0.00,97,weatherlink.com 1.10,2013-09-03 23:10:00,
2013-09-03 17:25:00,73.9,54.0,30.18,NW,318,3.0,6.0,50,0.00,,,0.00,109,weatherlink.com 1.10,2013-09-03 23:25:00,
2013-09-03 17:40:00,74.0,53.0,30.18,North,5,0.0,5.0,48,0.00,,,0.00,373,weatherlink.com 1.10,2013-09-03 23:40:00,
2013-09-03 17:55:00,75.7,54.0,30.18,North,5,0.0,0.0,47,0.00,,,0.00,214,weatherlink.com 1.10,2013-09-03 23:55:00,
2013-09-03 18:10:00,76.1,54.0,30.18,NNW,348,0.0,0.0,46,0.00,,,0.00,156,weatherlink.com 1.10,2013-09-04 00:10:00,
2013-09-03 18:25:00,75.2,54.0,30.18,West,276,0.0,4.0,47,0.00,,,0.00,118,weatherlink.com 1.10,2013-09-04 00:25:00,
2013-09-03 18:40:00,75.4,54.0,30.18,West,276,0.0,0.0,47,0.00,,,0.00,84,weatherlink.com 1.10,2013-09-04 00:40:00,
2013-09-03 18:55:00,75.4,54.0,30.18,West,276,0.0,0.0,47,0.00,,,0.00,53,weatherlink.com 1.10,2013-09-04 00:55:00,
2013-09-03 19:10:00,75.1,53.0,30.18,West,276,0.0,3.0,47,0.00,,,0.00,42,weatherlink.com 1.10,2013-09-04 01:10:00,
2013-09-03 19:25:00,74.9,54.0,30.18,West,276,0.0,0.0,48,0.00,,,0.00,32,weatherlink.com 1.10,2013-09-04 01:25:00,
2013-09-03 19:40:00,74.7,54.0,30.19,West,276,0.0,1.0,48,0.00,,,0.00,19,weatherlink.com 1.10,2013-09-04 01:40:00,
2013-09-03 19:55:00,73.5,54.0,30.19,WNW,282,2.0,3.0,51,0.00,,,0.00,14,weatherlink.com 1.10,2013-09-04 01:55:00,
2013-09-03 20:10:00,73.0,54.0,30.19,NW,312,0.0,1.0,51,0.00,,,0.00,0,weatherlink.com 1.10,2013-09-04 02:10:00,
2013-09-03 20:25:00,72.9,54.0,30.19,ENE,74,0.0,5.0,51,0.00,,,0.00,0,weatherlink.com 1.10,2013-09-04 02:25:00,
2013-09-03 20:40:00,72.8,53.0,30.20,ENE,74,0.0,2.0,50,0.00,,,0.00,0,weatherlink.com 1.10,2013-09-04 02:40:00,
2013-09-03 20:55:00,72.7,53.0,30.20,East,81,5.0,5.0,50,0.00,,,0.00,0,weatherlink.com 1.10,2013-09-04 02:55:00,
2013-09-03 21:10:00,72.4,53.0,30.20,East,82,2.0,7.0,51,0.00,,,0.00,0,weatherlink.com 1.10,2013-09-04 03:10:00,
2013-09-03 21:25:00,72.4,53.0,30.20,East,81,0.0,2.0,51,0.00,,,0.00,0,weatherlink.com 1.10,2013-09-04 03:25:00,
2013-09-03 21:40:00,70.9,53.0,30.20,NE,50,0.0,3.0,54,0.00,,,0.00,0,weatherlink.com 1.10,2013-09-04 03:40:00,
2013-09-03 21:55:00,71.4,53.0,30.20,ENE,57,0.0,0.0,52,0.00,,,0.00,0,weatherlink.com 1.10,2013-09-04 03:55:00,
2013-09-03 22:10:00,71.7,53.0,30.20,ENE,62,0.0,2.0,52,0.00,,,0.00,0,weatherlink.com 1.10,2013-09-04 04:10:00,
2013-09-03 22:25:00,70.6,53.0,30.20,ENE,63,0.0,0.0,54,0.00,,,0.00,0,weatherlink.com 1.10,2013-09-04 04:25:00,
2013-09-03 22:40:00,70.6,53.0,30.20,ENE,63,1.0,1.0,54,0.00,,,0.00,0,weatherlink.com 1.10,2013-09-04 04:40:00,
2013-09-03 22:55:00,69.3,53.0,30.21,NW,326,0.0,4.0,57,0.00,,,0.00,0,weatherlink.com 1.10,2013-09-04 04:55:00,
2013-09-03 23:10:00,68.8,53.0,30.21,NW,326,0.0,0.0,57,0.00,,,0.00,0,weatherlink.com 1.10,2013-09-04 05:10:00,
2013-09-03 23:25:00,69.5,53.0,30.21,NE,38,0.0,2.0,56,0.00,,,0.00,0,weatherlink.com 1.10,2013-09-04 05:25:00,
2013-09-03 23:40:00,68.7,53.0,30.21,NE,39,0.0,0.0,57,0.00,,,0.00,0,weatherlink.com 1.10,2013-09-04 05:40:00,
2013-09-03 23:55:00,69.3,53.0,30.21,NE,40,0.0,2.0,56,0.00,,,0.00,0,weatherlink.com 1.10,2013-09-04 05:55:00,